Time,TemperatureF,DewpointF,PressureIn,WindDirection,WindDirectionDegrees,WindSpeedMPH,WindSpeedGustMPH,Humidity,HourlyPrecipIn,Conditions,Clouds,dailyrainin,SoftwareType,DateUTC
2013-06-07 00:02:00,53.0,-99.9,30.10,SSE,162,1.0,2.0,-999,-99.99,,,-99.99,,2013-06-07 07:02:00,
2013-06-07 00:12:00,52.0,-99.9,30.10,SSE,163,0.0,2.0,-999,-99.99,,,-99.99,,2013-06-07 07:12:00,
2013-06-07 00:22:00,51.0,-99.9,30.10,NNE,14,2.0,2.0,-999,-99.99,,,-99.99,,2013-06-07 07:22:00,
2013-06-07 00:32:00,51.0,-99.9,30.10,East,85,3.0,4.0,-999,-99.99,,,-99.99,,2013-06-07 07:32:00,
2013-06-07 00:42:00,51.0,-99.9,30.10,SE,127,4.0,4.0,-999,-99.99,,,-99.99,,2013-06-07 07:42:00,
2013-06-07 00:52:00,51.0,-99.9,30.10,SSE,160,2.0,3.0,-999,-99.99,,,-99.99,,2013-06-07 07:52:00,
2013-06-07 01:02:00,51.0,-99.9,30.10,SE,137,3.0,4.0,-999,-99.99,,,-99.99,,2013-06-07 08:02:00,
2013-06-07 01:12:00,51.0,-99.9,30.11,WNW,292,0.0,1.0,-999,-99.99,,,-99.99,,2013-06-07 08:12:00,
2013-06-07 01:22:00,50.0,-99.9,30.11,WNW,282,3.0,3.0,-999,-99.99,,,-99.99,,2013-06-07 08:22:00,
2013-06-07 01:32:00,50.0,-99.9,30.11,WSW,254,3.0,4.0,-999,-99.99,,,-99.99,,2013-06-07 08:32:00,
2013-06-07 01:43:00,49.0,-99.9,30.11,SW,230,3.0,4.0,-999,-99.99,,,-99.99,,2013-06-07 08:43:00,
2013-06-07 01:52:00,49.0,-99.9,30.12,SSW,211,2.0,3.0,-999,-99.99,,,-99.99,,2013-06-07 08:52:00,
2013-06-07 02:02:00,51.0,-99.9,30.11,SW,228,2.0,2.0,-999,-99.99,,,-99.99,,2013-06-07 09:02:00,
2013-06-07 02:12:00,52.0,-99.9,30.11,North,-999,5.0,6.0,-999,-99.99,,,-99.99,,2013-06-07 09:12:00,
2013-06-07 02:22:00,52.0,-99.9,30.11,North,-999,3.0,6.0,-999,-99.99,,,-99.99,,2013-06-07 09:22:00,
2013-06-07 02:33:00,51.0,-99.9,30.11,East,93,4.0,4.0,-999,-99.99,,,-99.99,,2013-06-07 09:33:00,
2013-06-07 02:43:00,51.0,-99.9,30.12,East,90,3.0,5.0,-999,-99.99,,,-99.99,,2013-06-07 09:43:00,
2013-06-07 02:53:00,51.0,-99.9,30.12,East,96,3.0,4.0,-999,-99.99,,,-99.99,,2013-06-07 09:53:00,
2013-06-07 03:03:00,51.0,-99.9,30.12,ESE,122,5.0,5.0,-999,-99.99,,,-99.99,,2013-06-07 10:03:00,
2013-06-07 03:13:00,51.0,-99.9,30.12,SE,129,4.0,6.0,-999,-99.99,,,-99.99,,2013-06-07 10:13:00,
2013-06-07 03:23:00,51.0,-99.9,30.12,East,98,3.0,4.0,-999,-99.99,,,-99.99,,2013-06-07 10:23:00,
2013-06-07 03:33:00,51.0,-99.9,30.13,NNE,33,0.0,2.0,-999,-99.99,,,-99.99,,2013-06-07 10:33:00,
2013-06-07 03:43:00,51.0,-99.9,30.13,NE,39,2.0,2.0,-999,-99.99,,,-99.99,,2013-06-07 10:43:00,
2013-06-07 03:53:00,51.0,-99.9,30.13,SE,131,2.0,2.0,-999,-99.99,,,-99.99,,2013-06-07 10:53:00,
2013-06-07 04:02:00,51.0,-99.9,30.14,ESE,113,3.0,4.0,-999,-99.99,,,-99.99,,2013-06-07 11:02:00,
2013-06-07 04:12:00,50.0,-99.9,30.14,South,173,2.0,5.0,-999,-99.99,,,-99.99,,2013-06-07 11:12:00,
2013-06-07 04:22:00,50.0,-99.9,30.13,SSE,161,2.0,4.0,-999,-99.99,,,-99.99,,2013-06-07 11:22:00,
2013-06-07 04:32:00,50.0,-99.9,30.13,South,170,3.0,3.0,-999,-99.99,,,-99.99,,2013-06-07 11:32:00,
2013-06-07 04:42:00,51.0,-99.9,30.13,ESE,106,2.0,3.0,-999,-99.99,,,-99.99,,2013-06-07 11:42:00,
2013-06-07 04:53:00,51.0,-99.9,30.13,East,90,2.0,3.0,-999,-99.99,,,-99.99,,2013-06-07 11:53:00,
2013-06-07 05:02:00,51.0,-99.9,30.12,East,92,3.0,4.0,-999,-99.99,,,-99.99,,2013-06-07 12:02:00,
2013-06-07 05:13:00,51.0,-99.9,30.12,East,90,4.0,5.0,-999,-99.99,,,-99.99,,2013-06-07 12:13:00,
2013-06-07 05:22:00,51.0,-99.9,30.13,East,83,4.0,5.0,-999,-99.99,,,-99.99,,2013-06-07 12:22:00,
2013-06-07 05:33:00,51.0,-99.9,30.13,ESE,105,1.0,2.0,-999,-99.99,,,-99.99,,2013-06-07 12:33:00,
2013-06-07 05:42:00,51.0,-99.9,30.13,NNE,14,2.0,2.0,-999,-99.99,,,-99.99,,2013-06-07 12:42:00,
2013-06-07 05:52:00,51.0,-99.9,30.13,East,92,2.0,3.0,-999,-99.99,,,-99.99,,2013-06-07 12:52:00,
2013-06-07 06:02:00,50.0,-99.9,30.13,SE,135,5.0,5.0,-999,-99.99,,,-99.99,,2013-06-07 13:02:00,
2013-06-07 06:13:00,50.0,-99.9,30.14,East,100,4.0,6.0,-999,-99.99,,,-99.99,,2013-06-07 13:13:00,
2013-06-07 06:22:00,50.0,-99.9,30.14,East,100,3.0,4.0,-999,-99.99,,,-99.99,,2013-06-07 13:22:00,
2013-06-07 06:33:00,50.0,-99.9,30.14,ESE,112,3.0,4.0,-999,-99.99,,,-99.99,,2013-06-07 13:33:00,
2013-06-07 06:43:00,50.0,-99.9,30.14,SE,127,3.0,4.0,-999,-99.99,,,-99.99,,2013-06-07 13:43:00,
2013-06-07 06:52:00,50.0,-99.9,30.15,SE,132,4.0,4.0,-999,-99.99,,,-99.99,,2013-06-07 13:52:00,
2013-06-07 07:03:00,50.0,-99.9,30.15,East,100,3.0,6.0,-999,-99.99,,,-99.99,,2013-06-07 14:03:00,
2013-06-07 07:13:00,50.0,-99.9,30.15,ESE,105,4.0,5.0,-999,-99.99,,,-99.99,,2013-06-07 14:13:00,
2013-06-07 07:23:00,51.0,-99.9,30.14,ESE,107,6.0,6.0,-999,-99.99,,,-99.99,,2013-06-07 14:23:00,
2013-06-07 07:33:00,51.0,-99.9,30.14,ESE,114,7.0,8.0,-999,-99.99,,,-99.99,,2013-06-07 14:33:00,
2013-06-07 07:42:00,51.0,-99.9,30.14,ESE,108,6.0,8.0,-999,-99.99,,,-99.99,,2013-06-07 14:42:00,
2013-06-07 07:52:00,51.0,-99.9,30.14,ESE,118,5.0,7.0,-999,-99.99,,,-99.99,,2013-06-07 14:52:00,
2013-06-07 08:03:00,51.0,-99.9,30.14,ESE,119,5.0,6.0,-999,-99.99,,,-99.99,,2013-06-07 15:03:00,
2013-06-07 08:12:00,52.0,-99.9,30.14,ESE,106,3.0,5.0,-999,-99.99,,,-99.99,,2013-06-07 15:12:00,
2013-06-07 08:23:00,53.0,-99.9,30.14,ESE,121,2.0,4.0,-999,-99.99,,,-99.99,,2013-06-07 15:23:00,
2013-06-07 08:33:00,53.0,-99.9,30.14,ESE,122,2.0,3.0,-999,-99.99,,,-99.99,,2013-06-07 15:33:00,
2013-06-07 08:43:00,54.0,-99.9,30.15,SE,133,1.0,2.0,-999,-99.99,,,-99.99,,2013-06-07 15:43:00,
2013-06-07 08:53:00,55.0,-99.9,30.15,ESE,119,0.0,1.0,-999,-99.99,,,-99.99,,2013-06-07 15:53:00,
2013-06-07 09:03:00,55.0,-99.9,30.14,ESE,111,3.0,4.0,-999,-99.99,,,-99.99,,2013-06-07 16:03:00,
2013-06-07 09:13:00,55.0,-99.9,30.14,ESE,104,3.0,4.0,-999,-99.99,,,-99.99,,2013-06-07 16:13:00,
2013-06-07 09:22:00,55.0,-99.9,30.15,ESE,122,3.0,4.0,-999,-99.99,,,-99.99,,2013-06-07 16:22:00,
2013-06-07 09:33:00,57.0,-99.9,30.15,ESE,121,1.0,3.0,-999,-99.99,,,-99.99,,2013-06-07 16:33:00,
2013-06-07 09:43:00,56.0,-99.9,30.15,WNW,288,3.0,4.0,-999,-99.99,,,-99.99,,2013-06-07 16:43:00,
2013-06-07 09:53:00,56.0,-99.9,30.15,West,276,4.0,5.0,-999,-99.99,,,-99.99,,2013-06-07 16:53:00,
2013-06-07 10:03:00,56.0,-99.9,30.14,SW,231,4.0,6.0,-999,-99.99,,,-99.99,,2013-06-07 17:03:00,
2013-06-07 10:13:00,56.0,-99.9,30.14,WSW,243,5.0,6.0,-999,-99.99,,,-99.99,,2013-06-07 17:13:00,
2013-06-07 10:23:00,56.0,-99.9,30.14,WSW,246,5.0,7.0,-999,-99.99,,,-99.99,,2013-06-07 17:23:00,
2013-06-07 10:32:00,56.0,-99.9,30.14,WSW,248,6.0,7.0,-999,-99.99,,,-99.99,,2013-06-07 17:32:00,
2013-06-07 10:43:00,56.0,-99.9,30.14,West,268,6.0,9.0,-999,-99.99,,,-99.99,,2013-06-07 17:43:00,
2013-06-07 10:53:00,56.0,-99.9,30.15,West,281,7.0,8.0,-999,-99.99,,,-99.99,,2013-06-07 17:53:00,
2013-06-07 11:10:00,56.0,-99.9,30.15,NW,310,5.0,8.0,-999,-99.99,,,-99.99,,2013-06-07 18:10:00,
2013-06-07 11:21:00,56.0,-99.9,30.15,NW,316,6.0,8.0,-999,-99.99,,,-99.99,,2013-06-07 18:21:00,
2013-06-07 11:29:00,57.0,-99.9,30.15,NW,307,6.0,9.0,-999,-99.99,,,-99.99,,2013-06-07 18:29:00,
2013-06-07 11:38:00,57.0,-99.9,30.15,WNW,289,5.0,6.0,-999,-99.99,,,-99.99,,2013-06-07 18:38:00,
2013-06-07 11:46:00,57.0,-99.9,30.15,WNW,283,4.0,6.0,-999,-99.99,,,-99.99,,2013-06-07 18:46:00,
2013-06-07 12:02:00,58.0,-99.9,30.15,West,278,6.0,8.0,-999,-99.99,,,-99.99,,2013-06-07 19:02:00,
2013-06-07 12:09:00,57.0,-99.9,30.15,WNW,293,8.0,9.0,-999,-99.99,,,-99.99,,2013-06-07 19:09:00,
2013-06-07 12:17:00,56.0,-99.9,30.16,NW,308,7.0,11.0,-999,-99.99,,,-99.99,,2013-06-07 19:17:00,
2013-06-07 12:41:00,56.0,-99.9,30.16,NW,309,8.0,11.0,-999,-99.99,,,-99.99,,2013-06-07 19:41:00,
2013-06-07 12:51:00,57.0,-99.9,30.17,NW,317,10.0,13.0,-999,-99.99,,,-99.99,,2013-06-07 19:51:00,
2013-06-07 13:08:00,56.0,-99.9,30.17,NW,316,10.0,16.0,-999,-99.99,,,-99.99,,2013-06-07 20:08:00,
2013-06-07 13:18:00,57.0,-99.9,30.18,NW,318,13.0,17.0,-999,-99.99,,,-99.99,,2013-06-07 20:18:00,
2013-06-07 13:28:00,57.0,-99.9,30.18,NW,321,12.0,16.0,-999,-99.99,,,-99.99,,2013-06-07 20:28:00,
2013-06-07 13:52:00,57.0,-99.9,30.18,NW,323,13.0,18.0,-999,-99.99,,,-99.99,,2013-06-07 20:52:00,
2013-06-07 13:59:00,57.0,-99.9,30.18,NW,314,11.0,17.0,-999,-99.99,,,-99.99,,2013-06-07 20:59:00,
2013-06-07 14:08:00,57.0,-99.9,30.18,NW,325,13.0,17.0,-999,-99.99,,,-99.99,,2013-06-07 21:08:00,
2013-06-07 14:20:00,57.0,-99.9,30.18,NNW,332,17.0,19.0,-999,-99.99,,,-99.99,,2013-06-07 21:20:00,
2013-06-07 14:30:00,58.0,-99.9,30.17,NW,316,9.0,15.0,-999,-99.99,,,-99.99,,2013-06-07 21:30:00,
2013-06-07 14:43:00,58.0,-99.9,30.17,NW,307,9.0,14.0,-999,-99.99,,,-99.99,,2013-06-07 21:43:00,
2013-06-07 15:09:00,58.0,-99.9,30.17,NW,313,12.0,15.0,-999,-99.99,,,-99.99,,2013-06-07 22:09:00,
2013-06-07 15:24:00,58.0,-99.9,30.17,NW,317,13.0,16.0,-999,-99.99,,,-99.99,,2013-06-07 22:24:00,
2013-06-07 15:30:00,58.0,-99.9,30.17,NW,323,13.0,17.0,-999,-99.99,,,-99.99,,2013-06-07 22:30:00,
2013-06-07 15:39:00,58.0,-99.9,30.17,NW,316,8.0,12.0,-999,-99.99,,,-99.99,,2013-06-07 22:39:00,
2013-06-07 16:00:00,58.0,-99.9,30.17,NW,313,13.0,15.0,-999,-99.99,,,-99.99,,2013-06-07 23:00:00,
2013-06-07 16:10:00,58.0,-99.9,30.17,NW,314,13.0,16.0,-999,-99.99,,,-99.99,,2013-06-07 23:10:00,
2013-06-07 16:20:00,58.0,-99.9,30.17,NW,315,12.0,16.0,-999,-99.99,,,-99.99,,2013-06-07 23:20:00,
2013-06-07 16:33:00,58.0,-99.9,30.17,NW,325,11.0,17.0,-999,-99.99,,,-99.99,,2013-06-07 23:33:00,
2013-06-07 16:42:00,58.0,-99.9,30.17,NW,326,11.0,16.0,-999,-99.99,,,-99.99,,2013-06-07 23:42:00,
2013-06-07 16:56:00,58.0,-99.9,30.17,NNW,328,12.0,17.0,-999,-99.99,,,-99.99,,2013-06-07 23:56:00,
2013-06-07 17:14:00,58.0,-99.9,30.17,NW,314,13.0,17.0,-999,-99.99,,,-99.99,,2013-06-08 00:14:00,
2013-06-07 17:19:00,57.0,-99.9,30.17,NW,319,14.0,19.0,-999,-99.99,,,-99.99,,2013-06-08 00:19:00,
2013-06-07 17:32:00,57.0,-99.9,30.17,NW,324,12.0,19.0,-999,-99.99,,,-99.99,,2013-06-08 00:32:00,
2013-06-07 17:49:00,58.0,-99.9,30.16,NW,316,13.0,17.0,-999,-99.99,,,-99.99,,2013-06-08 00:49:00,
2013-06-07 18:02:00,58.0,-99.9,30.16,NW,322,12.0,21.0,-999,-99.99,,,-99.99,,2013-06-08 01:02:00,
2013-06-07 18:08:00,58.0,-99.9,30.16,NW,325,15.0,19.0,-999,-99.99,,,-99.99,,2013-06-08 01:08:00,
2013-06-07 18:21:00,58.0,-99.9,30.16,NW,320,15.0,20.0,-999,-99.99,,,-99.99,,2013-06-08 01:21:00,
2013-06-07 18:29:00,58.0,-99.9,30.16,NNW,346,16.0,21.0,-999,-99.99,,,-99.99,,2013-06-08 01:29:00,
2013-06-07 18:40:00,58.0,-99.9,30.15,NNW,334,14.0,20.0,-999,-99.99,,,-99.99,,2013-06-08 01:40:00,
2013-06-07 18:49:00,58.0,-99.9,30.15,NNW,328,12.0,17.0,-999,-99.99,,,-99.99,,2013-06-08 01:49:00,
2013-06-07 19:04:00,58.0,-99.9,30.15,NNW,330,18.0,22.0,-999,-99.99,,,-99.99,,2013-06-08 02:04:00,
2013-06-07 19:12:00,57.0,-99.9,30.16,NNW,338,14.0,21.0,-999,-99.99,,,-99.99,,2013-06-08 02:12:00,
2013-06-07 19:37:00,57.0,-99.9,30.15,NNW,344,18.0,24.0,-999,-99.99,,,-99.99,,2013-06-08 02:37:00,
2013-06-07 19:49:00,57.0,-99.9,30.16,NNW,341,20.0,28.0,-999,-99.99,,,-99.99,,2013-06-08 02:49:00,
2013-06-07 20:00:00,57.0,-99.9,30.16,NNW,339,17.0,23.0,-999,-99.99,,,-99.99,,2013-06-08 03:00:00,
2013-06-07 20:12:00,57.0,-99.9,30.16,NNW,336,12.0,16.0,-999,-99.99,,,-99.99,,2013-06-08 03:12:00,
2013-06-07 20:19:00,56.0,-99.9,30.16,NNW,335,13.0,19.0,-999,-99.99,,,-99.99,,2013-06-08 03:19:00,
2013-06-07 20:27:00,56.0,-99.9,30.16,NNW,337,16.0,21.0,-999,-99.99,,,-99.99,,2013-06-08 03:27:00,
2013-06-07 20:40:00,56.0,-99.9,30.16,NNW,330,13.0,17.0,-999,-99.99,,,-99.99,,2013-06-08 03:40:00,
2013-06-07 20:54:00,56.0,-99.9,30.16,NNW,339,15.0,21.0,-999,-99.99,,,-99.99,,2013-06-08 03:54:00,
2013-06-07 21:01:00,56.0,-99.9,30.16,NNW,344,13.0,18.0,-999,-99.99,,,-99.99,,2013-06-08 04:01:00,
2013-06-07 21:13:00,57.0,-99.9,30.15,North,358,9.0,14.0,-999,-99.99,,,-99.99,,2013-06-08 04:13:00,
2013-06-07 21:23:00,57.0,-99.9,30.15,NNW,346,9.0,13.0,-999,-99.99,,,-99.99,,2013-06-08 04:23:00,
2013-06-07 21:33:00,57.0,-99.9,30.15,North,350,7.0,12.0,-999,-99.99,,,-99.99,,2013-06-08 04:33:00,
2013-06-07 21:42:00,57.0,-99.9,30.15,NNW,345,5.0,11.0,-999,-99.99,,,-99.99,,2013-06-08 04:42:00,
2013-06-07 21:53:00,57.0,-99.9,30.15,North,10,5.0,9.0,-999,-99.99,,,-99.99,,2013-06-08 04:53:00,
2013-06-07 22:02:00,57.0,-99.9,30.15,NNW,348,3.0,9.0,-999,-99.99,,,-99.99,,2013-06-08 05:02:00,
2013-06-07 22:12:00,57.0,-99.9,30.15,North,352,4.0,10.0,-999,-99.99,,,-99.99,,2013-06-08 05:12:00,
2013-06-07 22:22:00,57.0,-99.9,30.16,North,349,6.0,9.0,-999,-99.99,,,-99.99,,2013-06-08 05:22:00,
2013-06-07 22:32:00,56.0,-99.9,30.17,NW,324,9.0,11.0,-999,-99.99,,,-99.99,,2013-06-08 05:32:00,
2013-06-07 22:42:00,56.0,-99.9,30.17,NNW,335,10.0,13.0,-999,-99.99,,,-99.99,,2013-06-08 05:42:00,
2013-06-07 22:53:00,56.0,-99.9,30.17,North,11,9.0,15.0,-999,-99.99,,,-99.99,,2013-06-08 05:53:00,
2013-06-07 23:02:00,56.0,-99.9,30.19,NNW,341,9.0,16.0,-999,-99.99,,,-99.99,,2013-06-08 06:02:00,
2013-06-07 23:13:00,56.0,-99.9,30.18,North,1,8.0,15.0,-999,-99.99,,,-99.99,,2013-06-08 06:13:00,
2013-06-07 23:22:00,56.0,-99.9,30.18,North,5,10.0,16.0,-999,-99.99,,,-99.99,,2013-06-08 06:22:00,
2013-06-07 23:32:00,56.0,-99.9,30.18,NNE,19,7.0,12.0,-999,-99.99,,,-99.99,,2013-06-08 06:32:00,
2013-06-07 23:42:00,56.0,-99.9,30.17,North,-999,8.0,11.0,-999,-99.99,,,-99.99,,2013-06-08 06:42:00,
2013-06-07 23:53:00,56.0,-99.9,30.17,NNW,330,4.0,6.0,-999,-99.99,,,-99.99,,2013-06-08 06:53:00,